CW1053 Weather Reports


time (UTC)temp
C
wind
direction
speed
KPH
gust
KPH
rain 1hr
cm
rain 24hr
cm
rain mn
cm
humidity
%
barometer
mb
20260507031010 16 262 0.0 0.0 0.05 0.05 0.05 88 1009.0
20260507030516 16 261 0.0 0.0 0.05 0.05 0.05 88 1008.8
20260507030030 17 265 0.0 0.0 0.05 0.05 0.05 87 1008.9
20260507025511 17 267 0.0 0.0 0.03 0.03 0.03 87 1008.8
20260507025006 17 267 0.0 4.8 0.03 0.03 0.03 86 1008.8
20260507024524 17 255 1.6 4.8 0.03 0.03 0.03 85 1008.8
20260507024009 18 260 1.6 4.8 0.00 0.00 0.00 83 1008.7
20260507023507 18 254 3.2 4.8 0.00 0.00 0.00 80 1008.8
20260507023022 18 264 1.6 4.8 0.00 0.00 0.00 79 1008.7
20260507022509 18 269 0.0 1.6 0.00 0.00 0.00 79 1008.3
20260507022011 18 269 0.0 1.6 0.00 0.00 0.00 79 1008.3
20260507021524 19 258 0.0 3.2 0.00 0.00 0.00 78 1008.2
20260507021011 18 257 0.0 3.2 0.00 0.00 0.00 78 1008.3
20260507020509 18 264 0.0 3.2 0.00 0.00 0.00 79 1008.6
20260507020029 18 270 0.0 1.6 0.00 0.00 0.00 79 1008.5
20260507015511 18 270 0.0 0.0 0.00 0.00 0.00 79 1008.5
20260507015013 18 270 0.0 1.6 0.00 0.00 0.00 78 1008.4
20260507014527 18 258 0.0 1.6 0.00 0.00 0.00 78 1008.3
20260507014008 18 258 0.0 1.6 0.00 0.00 0.00 78 1008.5
20260507013507 19 257 0.0 1.6 0.00 0.00 0.00 78 1008.3
20260507013019 19 257 0.0 1.6 0.00 0.00 0.00 78 1008.4
20260507012506 19 257 0.0 1.6 0.00 0.00 0.00 78 1008.6
20260507012011 19 261 0.0 0.0 0.00 0.00 0.00 78 1008.7
20260507011524 18 261 0.0 0.0 0.00 0.00 0.00 78 1008.7
20260507011009 18 261 0.0 0.0 0.00 0.00 0.00 78 1008.4
20260507010507 18 261 0.0 0.0 0.00 0.00 0.00 78 1008.1
20260507010033 18 261 0.0 0.0 0.00 0.00 0.00 78 1008.1
20260507005504 18 261 0.0 0.0 0.00 0.00 0.00 78 1008.1
20260507005006 18 261 0.0 0.0 0.00 0.00 0.00 78 1008.2
20260507004515 19 261 0.0 0.0 0.00 0.00 0.00 77 1008.2
20260507004006 18 261 0.0 0.0 0.00 0.00 0.00 77 1008.2
20260507003508 18 261 0.0 0.0 0.00 0.00 0.00 77 1008.0
20260507003015 18 261 0.0 0.0 0.00 0.00 0.00 77 1008.0
20260507002507 18 261 0.0 0.0 0.00 0.00 0.00 77 1007.9
20260507002011 18 261 0.0 0.0 0.00 0.00 0.00 77 1008.0
20260507001522 19 261 0.0 0.0 0.00 0.00 0.00 77 1008.0
20260507001006 19 261 0.0 0.0 0.00 0.00 0.00 76 1007.9
20260507000508 19 261 0.0 0.0 0.00 0.00 0.00 76 1008.1
20260507000024 19 261 0.0 0.0 0.00 0.00 0.00 76 1008.1
20260506235507 19 261 0.0 0.0 0.00 0.00 0.00 75 1008.0
20260506235009 19 261 0.0 0.0 0.00 0.00 0.00 76 1008.0
20260506234531 19 261 0.0 0.0 0.00 0.00 0.00 75 1008.0
20260506234006 19 261 0.0 1.6 0.00 0.00 0.00 75 1007.9
20260506233510 20 261 0.0 3.2 0.00 0.00 0.00 74 1007.7
20260506233016 20 261 0.0 3.2 0.00 0.00 0.00 74 1007.9
20260506232507 20 255 1.6 3.2 0.00 0.00 0.00 74 1007.9
20260506232008 20 267 1.6 3.2 0.00 0.00 0.00 74 1007.9
20260506231521 20 271 0.0 3.2 0.00 0.00 0.00 73 1007.8
20260506231010 20 257 1.6 3.2 0.00 0.00 0.00 73 1007.6
20260506230508 20 280 0.0 3.2 0.00 0.00 0.00 74 1007.3
20260506230028 20 264 1.6 4.8 0.00 0.00 0.00 73 1007.7
20260506225506 20 260 1.6 4.8 0.00 0.00 0.00 73 1007.8
20260506225007 20 236 0.0 3.2 0.00 0.00 0.00 74 1007.8
20260506224524 20 266 1.6 3.2 0.00 0.00 0.00 74 1007.7
20260506224006 20 263 0.0 1.6 0.00 0.00 0.00 74 1007.7
20260506223510 20 262 0.0 4.8 0.00 0.00 0.00 74 1007.7
20260506223014 20 262 1.6 4.8 0.00 0.00 0.00 74 1007.8
20260506222504 20 257 0.0 4.8 0.00 0.00 0.00 74 1007.7
20260506222006 20 218 1.6 4.8 0.00 0.00 0.00 74 1007.7
20260506221519 20 260 1.6 6.4 0.00 0.00 0.00 74 1007.7
20260506221007 20 243 3.2 6.4 0.00 0.00 0.00 73 1007.6
20260506220505 20 252 0.0 3.2 0.00 0.00 0.00 74 1007.6
20260506220033 20 260 0.0 3.2 0.00 0.00 0.00 74 1007.5
20260506215512 20 265 0.0 6.4 0.00 0.00 0.00 74 1007.6
20260506215009 20 236 1.6 8.0 0.00 0.00 0.00 74 1007.6
20260506214507 19 260 3.2 8.0 0.00 0.00 0.00 74 1007.5
20260506214004 19 252 1.6 9.7 0.00 0.00 0.00 74 1007.5
20260506213503 20 243 3.2 11.3 0.00 0.00 0.00 74 1007.5
20260506213012 19 262 3.2 11.3 0.00 0.00 0.00 74 1007.4
20260506212503 20 254 3.2 6.4 0.00 0.00 0.00 74 1007.4
20260506212007 20 264 1.6 6.4 0.00 0.00 0.00 74 1007.3
20260506211517 20 261 1.6 9.7 0.00 0.00 0.00 74 1007.2
20260506211007 20 236 3.2 9.7 0.00 0.00 0.00 73 1007.2
20260506210507 20 266 3.2 6.4 0.00 0.00 0.00 74 1007.0
20260506210025 20 259 1.6 6.4 0.00 0.00 0.00 74 1006.9
20260506205507 20 250 3.2 8.0 0.00 0.00 0.00 74 1007.0
20260506205010 19 263 1.6 8.0 0.00 0.00 0.00 75 1006.9
20260506204528 19 271 1.6 4.8 0.00 0.00 0.00 74 1007.0
20260506204008 20 250 1.6 4.8 0.00 0.00 0.00 74 1007.0
20260506203502 19 262 1.6 4.8 0.00 0.00 0.00 75 1006.9
20260506203009 19 263 1.6 6.4 0.00 0.00 0.00 76 1006.8
20260506202504 18 258 1.6 6.4 0.00 0.00 0.00 76 1006.9
20260506202007 18 255 1.6 1.6 0.00 0.00 0.00 76 1007.0
20260506201525 18 250 0.0 3.2 0.00 0.00 0.00 77 1007.1
20260506201007 18 262 0.0 4.8 0.00 0.00 0.00 77 1007.2
20260506200506 18 243 1.6 4.8 0.00 0.00 0.00 77 1007.2
20260506200018 18 259 1.6 3.2 0.00 0.00 0.00 77 1007.3
20260506195509 18 263 1.6 4.8 0.00 0.00 0.00 77 1007.4
20260506195010 18 245 1.6 4.8 0.00 0.00 0.00 77 1007.5
20260506194524 18 253 1.6 8.0 0.00 0.00 0.00 77 1007.5
20260506194007 18 242 3.2 8.0 0.00 0.00 0.00 77 1007.5
20260506193511 18 264 1.6 6.4 0.00 0.00 0.00 76 1007.7
20260506193026 18 254 1.6 9.7 0.00 0.00 0.00 76 1007.7
20260506192504 18 229 3.2 9.7 0.00 0.00 0.00 74 1007.8
20260506192004 18 256 1.6 6.4 0.00 0.00 0.00 74 1007.7
20260506191513 18 259 0.0 6.4 0.00 0.00 0.00 74 1007.6
20260506191007 18 265 1.6 8.0 0.00 0.00 0.00 74 1007.6
20260506190505 18 283 1.6 8.0 0.00 0.00 0.00 74 1007.6
20260506190025 18 250 1.6 8.0 0.00 0.00 0.00 74 1007.6
20260506185506 18 254 1.6 11.3 0.00 0.00 0.00 74 1007.6
20260506185006 18 244 1.6 11.3 0.00 0.00 0.00 75 1007.7
20260506184523 18 242 1.6 6.4 0.00 0.00 0.00 75 1007.7
20260506184009 18 237 3.2 9.7 0.00 0.00 0.00 74 1007.7
20260506183507 18 226 3.2 9.7 0.00 0.00 0.00 75 1007.8
20260506183024 18 215 3.2 8.0 0.00 0.00 0.00 75 1007.7
20260506182508 18 228 3.2 6.4 0.00 0.00 0.00 76 1007.8
20260506182012 18 258 0.0 3.2 0.00 0.00 0.00 75 1007.8
20260506181526 19 263 0.0 11.3 0.00 0.00 0.00 74 1007.9
20260506181003 20 239 4.8 12.9 0.00 0.00 0.00 73 1008.2
20260506180505 20 219 4.8 12.9 0.00 0.00 0.00 68 1008.1
20260506180022 20 254 3.2 11.3 0.00 0.00 0.00 67 1008.0
20260506175504 20 252 3.2 8.0 0.00 0.00 0.00 69 1008.1
20260506175007 21 262 1.6 11.3 0.00 0.00 0.00 68 1008.2
20260506174525 21 232 4.8 11.3 0.00 0.00 0.00 66 1008.2
20260506174008 21 218 1.6 8.0 0.00 0.00 0.00 69 1008.0
20260506173510 20 242 3.2 8.0 0.00 0.00 0.00 69 1008.0
20260506173024 20 257 0.0 1.6 0.00 0.00 0.00 71 1007.9
20260506172507 20 261 0.0 3.2 0.00 0.00 0.00 72 1007.9
20260506172009 20 260 0.0 4.8 0.00 0.00 0.00 74 1008.0
20260506171537 20 257 0.0 4.8 0.00 0.00 0.00 73 1008.2
20260506171008 19 245 1.6 4.8 0.00 0.00 0.00 74 1008.2
20260506170514 19 262 0.0 3.2 0.00 0.00 0.00 74 1008.2
20260506170011 19 257 0.0 3.2 0.00 0.00 0.00 74 1008.4
20260506165508 18 258 0.0 3.2 0.00 0.00 0.00 75 1008.7
20260506165006 18 257 1.6 3.2 0.00 0.00 0.00 74 1008.9
20260506164517 18 259 0.0 1.6 0.00 0.00 0.00 76 1009.1
20260506164009 18 257 0.0 0.0 0.00 0.00 0.00 74 1009.2
20260506163508 18 257 0.0 0.0 0.00 0.00 0.00 76 1009.4
20260506163023 18 259 0.0 0.0 0.00 0.00 0.00 75 1009.5
20260506162507 18 259 0.0 0.0 0.00 0.00 0.00 74 1009.6
20260506162011 18 257 0.0 0.0 0.00 0.00 0.00 74 1009.7
20260506161525 19 256 0.0 1.6 0.00 0.00 0.00 73 1009.6
20260506161008 19 267 0.0 3.2 0.00 0.00 0.00 72 1009.9
20260506160508 19 261 1.6 4.8 0.00 0.00 0.00 71 1010.0
20260506160028 20 254 1.6 4.8 0.00 0.00 0.00 68 1009.9
20260506155508 20 261 0.0 8.0 0.00 0.00 0.00 66 1009.9
20260506155004 21 246 1.6 8.0 0.00 0.00 0.00 62 1009.8
20260506154519 21 256 3.2 8.0 0.00 0.00 0.00 60 1009.7
20260506154008 21 250 3.2 11.3 0.00 0.00 0.00 60 1009.7
20260506153510 21 222 3.2 11.3 0.00 0.00 0.00 59 1009.7
20260506153020 21 240 4.8 11.3 0.00 0.00 0.00 59 1009.7
20260506152508 21 200 1.6 9.7 0.00 0.00 0.00 61 1009.8
20260506152011 21 224 3.2 8.0 0.00 0.00 0.00 60 1009.8
20260506151526 21 252 1.6 6.4 0.00 0.00 0.00 60 1009.7
20260506151010 21 258 1.6 4.8 0.00 0.00 0.00 61 1009.6
20260506150513 21 238 1.6 8.0 0.00 0.00 0.00 60 1009.7
20260506150028 21 269 3.2 8.0 0.00 0.00 0.00 60 1009.8
20260506145508 21 243 3.2 12.9 0.00 0.00 0.00 59 1009.9
20260506145011 21 214 3.2 12.9 0.00 0.00 0.00 60 1009.9
20260506144527 21 269 3.2 8.0 0.00 0.00 0.00 59 1009.9
20260506144013 21 261 3.2 8.0 0.00 0.00 0.00 59 1009.9
20260506143506 21 260 1.6 6.4 0.00 0.00 0.00 59 1009.9
20260506143019 21 280 1.6 8.0 0.00 0.00 0.00 60 1009.8
20260506142511 21 249 3.2 8.0 0.00 0.00 0.00 60 1009.8
20260506142010 21 255 3.2 6.4 0.00 0.00 0.00 61 1009.8
20260506141520 21 271 1.6 8.0 0.00 0.00 0.00 62 1009.8
20260506141007 21 276 1.6 8.0 0.00 0.00 0.00 62 1009.7
20260506140507 21 222 3.2 8.0 0.00 0.00 0.00 61 1009.7
20260506140032 21 254 3.2 8.0 0.00 0.00 0.00 62 1009.6
20260506135507 21 268 1.6 3.2 0.00 0.00 0.00 62 1009.6
20260506135006 21 251 0.0 8.0 0.00 0.00 0.00 62 1009.6
20260506134525 21 237 1.6 8.0 0.00 0.00 0.00 62 1009.5
20260506134014 21 237 3.2 9.7 0.00 0.00 0.00 61 1009.6
20260506133510 21 217 4.8 9.7 0.00 0.00 0.00 61 1009.7
20260506133030 21 256 3.2 9.7 0.00 0.00 0.00 62 1009.7
20260506132508 21 231 3.2 8.0 0.00 0.00 0.00 62 1009.9
20260506132008 21 254 1.6 8.0 0.00 0.00 0.00 62 1009.8
20260506131520 21 247 1.6 9.7 0.00 0.00 0.00 63 1009.8
20260506131003 21 256 3.2 9.7 0.00 0.00 0.00 64 1009.9
20260506130503 21 259 1.6 6.4 0.00 0.00 0.00 64 1010.0
20260506130009 20 267 3.2 8.0 0.00 0.00 0.00 65 1009.9
20260506125503 20 259 1.6 8.0 0.00 0.00 0.00 66 1009.9
20260506125005 20 255 1.6 8.0 0.00 0.00 0.00 67 1009.8
20260506124508 20 220 3.2 8.0 0.00 0.00 0.00 68 1009.8
20260506124003 19 230 1.6 4.8 0.00 0.00 0.00 71 1010.0
20260506123504 18 254 1.6 4.8 0.00 0.00 0.00 70 1009.9
20260506123010 18 252 1.6 3.2 0.00 0.00 0.00 71 1009.9
20260506122504 18 259 1.6 3.2 0.00 0.00 0.00 71 1010.0
20260506122007 18 254 1.6 6.4 0.00 0.00 0.00 71 1010.0
20260506121509 18 264 0.0 6.4 0.00 0.00 0.00 71 1010.0
20260506121004 18 219 1.6 6.4 0.00 0.00 0.00 70 1010.0
20260506120504 18 259 0.0 4.8 0.00 0.00 0.00 70 1010.0
20260506120009 18 256 0.0 3.2 0.00 0.00 0.00 70 1010.1
20260506115504 18 247 0.0 3.2 0.00 0.00 0.00 69 1010.1
20260506115003 19 250 0.0 1.6 0.00 0.00 0.00 69 1010.2
20260506114528 19 264 0.0 3.2 0.00 0.00 0.00 70 1010.2
20260506114003 19 257 0.0 6.4 0.00 0.00 0.00 70 1010.2
20260506113504 19 257 1.6 6.4 0.00 0.00 0.00 69 1010.2
20260506113010 19 244 0.0 1.6 0.00 0.00 0.00 70 1010.2
20260506112504 18 240 0.0 4.8 0.00 0.00 0.00 72 1010.3
20260506112003 18 254 1.6 4.8 0.00 0.00 0.00 73 1010.2
20260506111510 18 234 3.2 4.8 0.00 0.00 0.00 74 1010.3
20260506111006 17 254 1.6 6.4 0.00 0.00 0.00 74 1010.2
20260506110505 18 275 1.6 6.4 0.00 0.00 0.00 74 1010.2
20260506110015 18 248 1.6 4.8 0.00 0.00 0.00 74 1010.1
20260506105509 17 255 1.6 4.8 0.00 0.00 0.00 75 1010.1
20260506105004 17 216 1.6 4.8 0.00 0.00 0.00 76 1010.0
20260506104510 17 257 1.6 4.8 0.00 0.00 0.00 76 1010.0
20260506104005 17 251 1.6 4.8 0.00 0.00 0.00 77 1010.0
20260506103507 17 261 1.6 6.4 0.00 0.00 0.00 78 1010.0
20260506103008 16 174 1.6 6.4 0.00 0.00 0.00 78 1010.1
20260506102508 16 259 1.6 4.8 0.00 0.00 0.00 78 1010.1
20260506102006 16 249 1.6 4.8 0.00 0.00 0.00 78 1010.1
20260506101511 16 252 0.0 4.8 0.00 0.00 0.00 78 1010.0
20260506101003 16 255 3.2 4.8 0.00 0.00 0.00 78 1009.9
20260506100503 16 257 0.0 4.8 0.00 0.00 0.00 78 1009.8
20260506100021 16 261 1.6 4.8 0.00 0.00 0.00 78 1009.8
20260506095502 16 264 0.0 3.2 0.00 0.00 0.00 78 1009.8
20260506095006 16 259 1.6 3.2 0.00 0.00 0.00 78 1009.8
20260506094512 16 254 0.0 3.2 0.00 0.00 0.00 78 1009.8
20260506094003 16 238 1.6 3.2 0.00 0.00 0.00 78 1009.8
20260506093503 16 249 0.0 8.0 0.00 0.00 0.00 78 1009.8
20260506093013 16 233 0.0 8.0 0.00 0.00 0.00 78 1009.8
20260506092506 16 260 0.0 3.2 0.00 0.00 0.00 78 1009.8
20260506092004 16 261 0.0 3.2 0.00 0.00 0.00 78 1009.9
20260506091513 17 258 0.0 3.2 0.00 0.00 0.00 78 1009.9
20260506091003 17 244 1.6 3.2 0.00 0.00 0.00 78 1010.0
20260506090507 17 264 0.0 3.2 0.00 0.00 0.00 78 1010.0
20260506090010 17 257 0.0 3.2 0.00 0.00 0.00 78 1010.0
20260506085503 17 246 0.0 3.2 0.00 0.00 0.00 78 1010.0
20260506085003 17 259 0.0 3.2 0.00 0.00 0.00 78 1010.2
20260506084514 17 259 0.0 3.2 0.00 0.00 0.00 78 1010.2
20260506084006 17 260 0.0 1.6 0.00 0.00 0.00 78 1010.2
20260506083505 17 261 0.0 1.6 0.00 0.00 0.00 78 1010.2
20260506083013 17 254 0.0 0.0 0.00 0.00 0.00 78 1010.2
20260506082505 17 257 0.0 0.0 0.00 0.00 0.00 77 1010.3
20260506082006 17 262 0.0 0.0 0.00 0.00 0.00 77 1010.3
20260506081512 17 263 0.0 0.0 0.00 0.00 0.00 77 1010.3
20260506081007 17 257 0.0 3.2 0.00 0.00 0.00 77 1010.3
20260506080503 17 252 0.0 3.2 0.00 0.00 0.00 77 1010.3
20260506073506 17 259 0.0 6.4 0.00 0.00 0.00 76 1010.2
20260506073016 17 244 1.6 6.4 0.00 0.00 0.00 76 1010.3
20260506072508 17 238 0.0 3.2 0.00 0.00 0.00 76 1010.3
20260506072008 17 270 0.0 4.8 0.00 0.00 0.00 76 1010.3
20260506071515 17 249 1.6 4.8 0.00 0.00 0.00 76 1010.3
20260506071005 17 266 1.6 3.2 0.00 0.00 0.00 76 1010.4
20260506070508 17 245 1.6 3.2 0.00 0.00 0.00 75 1010.4
20260506062507 17 249 1.6 3.2 0.00 0.00 0.00 73 1010.5
20260506062007 17 250 0.0 4.8 0.00 0.00 0.00 73 1010.6
20260506061516 17 250 1.6 4.8 0.00 0.00 0.00 73 1010.6
20260506061013 17 254 1.6 3.2 0.00 0.00 0.00 72 1010.5
20260506060505 18 264 0.0 3.2 0.00 0.00 0.00 72 1010.6
20260506051008 18 256 0.0 6.4 0.00 0.00 0.00 69 1011.0
20260506050505 18 247 1.6 3.2 0.00 0.00 0.00 69 1011.0
20260506045007 18 254 1.6 4.8 0.00 0.00 0.00 68 1011.1
20260506044528 18 252 1.6 4.8 0.00 0.00 0.00 67 1011.1
20260506044006 18 250 1.6 4.8 0.00 0.00 0.00 67 1011.1
20260506043507 18 247 1.6 4.8 0.00 0.00 0.00 67 1011.2
20260506043018 18 240 1.6 4.8 0.00 0.00 0.00 67 1011.2
20260506042512 18 257 1.6 3.2 0.00 0.00 0.00 67 1011.2
20260506042008 18 290 1.6 3.2 0.00 0.00 0.00 67 1011.2
20260506041517 19 259 0.0 3.2 0.00 0.00 0.00 66 1011.1
20260506041006 19 244 1.6 3.2 0.00 0.00 0.00 66 1011.2
20260506040513 19 250 0.0 3.2 0.00 0.00 0.00 66 1011.1
20260506040019 19 255 0.0 3.2 0.00 0.00 0.00 65 1011.1
20260506035506 19 242 0.0 4.8 0.00 0.00 0.00 65 1011.1
20260506035007 19 254 0.0 4.8 0.00 0.00 0.00 65 1011.1
20260506034521 19 290 0.0 6.4 0.00 0.00 0.00 65 1011.1
20260506034008 19 264 0.0 6.4 0.00 0.00 0.00 64 1011.1
20260506033509 19 261 1.6 6.4 0.00 0.00 0.00 64 1011.1
20260506033023 19 266 1.6 4.8 0.00 0.00 0.00 63 1011.2
20260506032508 19 247 1.6 3.2 0.00 0.00 0.00 63 1011.1
20260506032008 20 270 0.0 6.4 0.00 0.00 0.00 63 1011.1
20260506031530 20 264 1.6 6.4 0.00 0.00 0.00 62 1011.1